TimePDT,TemperatureF,Dew PointF,Humidity,Sea Level PressureIn,VisibilityMPH,Wind Direction,Wind SpeedMPH,Gust SpeedMPH,PrecipitationIn,Events,Conditions,WindDirDegrees,DateUTC
12:48 AM,43.0,37.0,80,29.95,10.0,SSW,15.0,-,N/A,,Clear,200,2013-05-07 07:48:00
1:48 AM,43.0,37.0,80,29.94,10.0,SSW,12.7,-,N/A,,Clear,200,2013-05-07 08:48:00
2:48 AM,43.0,37.0,80,29.94,10.0,SW,9.2,-,N/A,,Scattered Clouds,220,2013-05-07 09:48:00
3:48 AM,43.0,37.0,80,29.93,10.0,SSW,9.2,-,N/A,,Scattered Clouds,200,2013-05-07 10:48:00
4:18 AM,42.8,37.4,81,29.99,2.5,SW,8.1,-,N/A,,Haze,230,2013-05-07 11:18:00
4:20 AM,42.8,37.4,81,29.99,1.0,SW,9.2,-,N/A,,Mist,230,2013-05-07 11:20:00
4:24 AM,42.8,37.4,81,29.99,0.2,SSW,8.1,-,N/A,Fog,Fog,210,2013-05-07 11:24:00
4:48 AM,42.1,39.0,89,29.93,0.2,SSW,8.1,-,N/A,Fog,Fog,210,2013-05-07 11:48:00
5:48 AM,-9999,-9999,N/A,-9999,-9999.0,North,-9999.0,-,N/A,,Unknown,0,2013-05-07 12:48:00
6:07 AM,42.8,39.2,87,30.00,0.2,SSW,5.8,-,N/A,Fog,Fog,210,2013-05-07 13:07:00
6:18 AM,42.8,39.2,87,30.01,1.0,SSW,3.5,-,N/A,,Overcast,200,2013-05-07 13:18:00
6:26 AM,42.8,39.2,87,30.01,6.0,SW,4.6,-,N/A,,Overcast,220,2013-05-07 13:26:00
6:29 AM,42.8,39.2,87,30.01,0.8,SW,3.5,-,N/A,,Overcast,230,2013-05-07 13:29:00
6:33 AM,42.8,39.2,87,30.01,0.2,SW,4.6,-,N/A,Fog,Fog,230,2013-05-07 13:33:00
6:48 AM,42.8,39.2,87,29.95,0.2,SSW,3.5,-,N/A,Fog-Rain,Light Rain,210,2013-05-07 13:48:00
7:01 AM,42.8,39.2,87,30.01,0.2,SW,5.8,-,0.00,Fog-Rain,Light Rain,220,2013-05-07 14:01:00
7:13 AM,42.8,39.2,87,30.02,0.2,West,4.6,-,0.00,Fog,Fog,270,2013-05-07 14:13:00
7:20 AM,42.8,37.4,81,30.02,1.0,WNW,5.8,-,0.00,Rain,Light Rain,290,2013-05-07 14:20:00
7:22 AM,42.8,37.4,81,30.02,3.0,WNW,6.9,-,0.00,Rain,Light Rain,290,2013-05-07 14:22:00
7:48 AM,43.0,37.9,82,29.97,4.0,West,6.9,-,0.03,Rain,Light Rain,260,2013-05-07 14:48:00
8:20 AM,42.8,37.4,81,30.04,4.0,West,5.8,-,0.03,Rain,Light Rain,270,2013-05-07 15:20:00
8:48 AM,44.1,37.9,79,29.99,10.0,West,5.8,-,0.05,,Overcast,260,2013-05-07 15:48:00
9:40 AM,44.6,39.2,81,30.05,6.0,WNW,4.6,-,0.01,,Haze,290,2013-05-07 16:40:00
9:48 AM,45.0,39.0,80,30.00,9.0,NW,5.8,-,0.01,,Overcast,310,2013-05-07 16:48:00
9:56 AM,46.4,39.2,76,30.05,10.0,NW,6.9,-,N/A,,Overcast,320,2013-05-07 16:56:00
10:12 AM,46.4,41.0,81,30.05,10.0,NNW,5.8,-,N/A,,Overcast,340,2013-05-07 17:12:00
10:48 AM,48.9,41.0,74,29.99,10.0,West,5.8,-,N/A,,Overcast,270,2013-05-07 17:48:00
11:15 AM,50.0,41.0,71,30.06,10.0,North,6.9,-,N/A,,Overcast,360,2013-05-07 18:15:00
11:22 AM,-9999,-9999,N/A,-9999,10.0,NNW,4.6,-,N/A,,Mostly Cloudy,340,2013-05-07 18:22:00
11:30 AM,50.0,39.2,66,30.06,10.0,Calm,Calm,-,N/A,,Overcast,0,2013-05-07 18:30:00
11:48 AM,52.0,39.9,63,29.99,10.0,North,3.5,-,N/A,,Mostly Cloudy,350,2013-05-07 18:48:00
12:39 PM,51.8,41.0,67,30.05,10.0,NNW,5.8,-,N/A,,Overcast,330,2013-05-07 19:39:00
12:48 PM,52.0,41.0,66,29.98,10.0,North,8.1,-,N/A,,Overcast,350,2013-05-07 19:48:00
1:17 PM,51.8,39.2,62,30.05,10.0,North,9.2,-,N/A,,Overcast,350,2013-05-07 20:17:00
1:34 PM,53.6,41.0,62,30.05,10.0,Variable,5.8,-,N/A,,Overcast,0,2013-05-07 20:34:00
1:39 PM,55.4,41.0,58,30.05,10.0,North,9.2,-,N/A,,Overcast,360,2013-05-07 20:39:00
1:48 PM,54.0,39.9,59,29.98,10.0,NW,8.1,-,N/A,,Overcast,320,2013-05-07 20:48:00
2:20 PM,53.6,41.0,62,30.05,10.0,Variable,6.9,16.1,N/A,,Mostly Cloudy,0,2013-05-07 21:20:00
2:48 PM,52.0,39.0,61,29.98,10.0,Calm,Calm,-,N/A,,Overcast,0,2013-05-07 21:48:00
3:48 PM,50.0,39.9,68,29.99,10.0,SW,6.9,-,N/A,,Overcast,220,2013-05-07 22:48:00
4:48 PM,53.1,39.9,61,29.98,10.0,NW,11.5,-,N/A,,Overcast,310,2013-05-07 23:48:00
5:31 PM,53.6,41.0,62,30.04,10.0,NNW,17.3,-,N/A,,Overcast,340,2013-05-08 00:31:00
5:48 PM,54.0,41.0,62,29.97,10.0,NNW,13.8,17.3,N/A,,Overcast,330,2013-05-08 00:48:00
6:48 PM,52.0,39.9,63,29.97,10.0,NNW,16.1,25.3,N/A,,Clear,340,2013-05-08 01:48:00
7:48 PM,48.9,41.0,74,29.98,10.0,North,15.0,19.6,N/A,,Clear,350,2013-05-08 02:48:00
8:17 PM,48.2,41.0,76,30.05,10.0,Variable,3.5,-,N/A,,Mostly Cloudy,0,2013-05-08 03:17:00
8:48 PM,48.0,42.1,80,30.00,10.0,North,10.4,-,N/A,,Mostly Cloudy,350,2013-05-08 03:48:00
8:53 PM,48.2,42.8,82,30.05,9.0,North,10.4,-,N/A,,Scattered Clouds,350,2013-05-08 03:53:00
9:48 PM,46.9,41.0,80,30.01,10.0,NW,10.4,-,N/A,,Clear,320,2013-05-08 04:48:00
10:03 PM,46.4,41.0,81,30.07,9.0,Variable,3.5,-,N/A,,Partly Cloudy,0,2013-05-08 05:03:00
10:13 PM,46.4,41.0,81,30.07,9.0,SW,4.6,-,N/A,,Mostly Cloudy,230,2013-05-08 05:13:00
10:31 PM,46.4,39.2,76,30.07,9.0,WSW,6.9,-,N/A,,Scattered Clouds,250,2013-05-08 05:31:00
10:48 PM,46.0,41.0,83,30.01,9.0,West,8.1,-,N/A,,Clear,270,2013-05-08 05:48:00
11:48 PM,46.9,39.0,74,30.01,10.0,Variable,3.5,-,N/A,,Partly Cloudy,0,2013-05-08 06:48:00